{"data":{"norad_id":49085,"intl_designator":"2021-075L","name":"ONEWEB-0296","alt_names":[],"object_type":"PAYLOAD","status":"ACTIVE","operator":null,"country":"UK","launch_date":"2021-08-21","launch_site_code":"TYMSC","launch_vehicle":null,"mission":null,"orbit_class":"UNKNOWN","rcs_meters":null,"size_class":null,"mass_kg":null,"dimensions":null,"purposes":["comms"],"wikipedia_slug":null,"has_3d_model":false,"image_url":null,"decayed_at":null,"tle_current":{"epoch":"2026-05-25T03:13:01.737696Z","epoch_age_seconds":59992,"freshness":"FRESH","line1":"1 49085U 21075L   26145.13404789 -.00000149  00000+0 -45066-3 0  9994","line2":"2 49085  87.8963 355.2498 0001833  97.2547 262.8790 13.12440714231551","mean_motion":13.12440714,"eccentricity":0.0001833,"inclination_deg":87.8963,"raan_deg":355.2498,"arg_perigee_deg":97.2547,"mean_anomaly_deg":262.879,"bstar":-0.00045066,"rev_number":23155,"period_min":109.71924176378,"perigee_km":1212.3405170705,"apogee_km":1215.123696285,"semimajor_km":7591.8691066778,"source":"CELESTRAK","updated_at":"2026-05-25T13:38:22.482681Z"}}}